Regional Weather Roundup
Issued by NWS

Home | Current Version | Previous Version | Graphics & Text | Print | Product List | Glossary On
Versions: 1 2 3 4 5 6 7 8 9 10 11 12 13 14 15 16 17 18 19 20 21 22 23 24 25 26 27 28 29 30 31 32 33 34 35 36 37 38 39 40 41 42 43 44 45 46 47 48 49 50
000
ASUS43 KLOT 010721
RWRIL

ILLINOIS REGIONAL WEATHER ROUNDUP
NATIONAL WEATHER SERVICE CHICAGO/ROMEOVILLE IL
200 AM CDT TUE SEP 01 2015

NOTE: "FAIR" INDICATES FEW OR NO CLOUDS BELOW 12,000 FEET WITH NO
SIGNIFICANT WEATHER AND/OR OBSTRUCTIONS TO VISIBILITY.

* THESE STATIONS ARE NOT UNDER NWS QUALITY CONTROL. THEY ALSO MAY NOT
  REPORT WEATHER SUCH AS PRECIPITATION OR FOG.

ILZ001-002-007-009-015-016-024-010800-
NORTHWEST ILLINOIS

CITY           SKY/WX    TMP DP  RH WIND       PRES   REMARKS
MOLINE         CLEAR     75  70  84 S6        30.00S
STERLING*      CLEAR    N/A N/A N/A CALM      29.99F
SAVANNA*       MOCLDY    74  70  87 S6        30.00F
$$

ILZ003-004-008-010-011-017-018-010800-
NORTH CENTRAL ILLINOIS

CITY           SKY/WX    TMP DP  RH WIND       PRES   REMARKS
ROCKFORD       CLEAR     70  67  90 S3        30.04S
FREEPORT*      PTCLDY    71  69  93 S8        30.03F
ROCHELLE*      CLEAR     69  68  96 S5        30.04S FOG
DE KALB*       CLEAR     68  67  97 S7        30.05S FOG
PERU*          FAIR      73  70  90 SW7       30.04F
$$

ILZ005-006-012>014-019>023-010800-
NORTHEAST ILLINOIS

CITY           SKY/WX    TMP DP  RH WIND       PRES   REMARKS
CHICAGO-OHARE  PTCLDY    71  68  90 S3        30.03F
CHICAGO-MIDWAY PTCLDY    76  69  79 S5        30.04S
AURORA         CLEAR     71  68  90 CALM      30.04F FOG
LANSING*       MOCLDY    70  68  95 S3        30.06R
JOLIET*        CLEAR     71  70  98 CALM      30.04S FOG
WAUKEGAN       PTCLDY    64  64 100 CALM      30.03S FOG
DUPAGE AIRPORT CLEAR     71  67  87 S5        30.03F
KANKAKEE*      CLEAR     71  69  93 CALM      30.07S
WHEELING       CLEAR     68  65  90 CALM      30.05S FOG
MORRIS*        CLEAR     70  68  94 SE3       30.03F FOG
ROMEOVILLE*    PTCLDY    70  68  94 S5        30.05S FOG
NORTHERLY ISL    N/A     75  68  78 S3          N/A
$$

LMZ740>746-010800-
SOUTHERN LAKE MICHIGAN

STATION/POSITION SKY/WX   TEMP    WIND        PRES    VSBY  WAVE
                          AIR SEA DIR/SP/G                  HT/PER
                          (F)     (DEG/KT/KT) (MB)    (MI)  (FT/S)
SOUTHERN BUOY              71 69  150/  8/  8 1016.8F         0
WILMETTE HARBOR            67 58  330/  4/  4   N/A           1
HARRISON CRIB              77     200/ 11/ 12   N/A
BURNHAM HARBOR             76     200/  2/  6   N/A
CALUMET HARBOR             74     180/  3/  4   N/A
BURNS HARBOR               74     190/  9/  9 1018.3R
MICHIGAN CITY              76     160/ 10/ 12   N/A
MICHIGAN CITY 6N           73 72  200/  6/  8   N/A           1
ST. JOSEPH                 73 72  200/  6/  8   N/A           1
$$

ILZ025>027-034>036-040-047-049-050-058-095>099-010800-
WEST-CENTRAL ILLINOIS

CITY           SKY/WX    TMP DP  RH WIND       PRES   REMARKS
QUINCY         CLEAR     75  71  87 S6        30.03R
GALESBURG*     CLEAR     71  69  93 S3        30.03S
MACOMB*        CLEAR     73  71  91 S5        30.04S
JACKSONVILLE*  CLEAR     77  73  86 S6        30.04F
PITTSFIELD*    PTCLDY    74  71  88 S5        30.05S
$$

ILZ028>032-037-038-041>044-048-051>054-059>061-010800-
CENTRAL ILLINOIS

CITY           SKY/WX    TMP DP  RH WIND       PRES   REMARKS
PONTIAC        PTCLDY    75  73  92 S6        30.05F
BLOOMINGTON    CLEAR     73  72  97 S8        30.07F
DECATUR        PTCLDY    74  69  85 SW8       30.07S
PEORIA         CLEAR     76  70  82 S6        30.04S
LACON*         PTCLDY    73  70  89 S5        30.02F
LINCOLN*       CLEAR     73  70  88 S6        30.05S
SPRINGFIELD    CLEAR     75  71  87 S7        30.05S
TAYLORVILLE    CLEAR     72  70  94 S5        30.06F
$$

ILZ033-039-045-046-055>057-062-063-010800-
EAST-CENTRAL ILLINOIS

CITY           SKY/WX    TMP DP  RH WIND       PRES   REMARKS
CHAMPAIGN      PTCLDY    72  69  90 S6        30.08S
RANTOUL*       PTCLDY    71  69  92 CALM      30.08R
MATTOON        PTCLDY    73  67  81 S7        30.07F
PARIS*         PTCLDY    68  67  95 CALM      30.09S
$$

ILZ079-100>102-010800-
SOUTHWEST ILLINOIS

CITY           SKY/WX    TMP DP  RH WIND       PRES   REMARKS
ALTON          CLEAR     73  70  92 S5        30.06S
BELLEVILLE     CLEAR     72  72 100 VRB1      30.05S
CAHOKIA*       CLEAR     73  70  90 S3        30.06S
SPARTA*        CLEAR     73  68  86 S3        30.08S
$$

ILZ064>066-069>071-074>076-080>082-084>086-088>090-092>094-010800-
SOUTH-CENTRAL ILLINOIS

CITY           SKY/WX    TMP DP  RH WIND       PRES   REMARKS
CARBONDALE     CLEAR     69  67  93 CALM      30.08S
CAIRO*         CLEAR     66  66 100 CALM      30.08S
EFFINGHAM*     CLEAR     72  67  84 SE3       30.09S
MARION         CLEAR     72  68  88 CALM      30.09S
MT. VERNON     PTCLDY    68  63  83 CALM      30.09S
SALEM*         CLEAR     74  70  88 S3        30.08S
METROPOLIS*    CLEAR     66  66 100 CALM      30.09S FOG
$$

ILZ067-068-072-073-078-083-087-091-010800-
SOUTHEAST ILLINOIS

CITY           SKY/WX    TMP DP  RH WIND       PRES   REMARKS
LAWRENCEVILLE  CLEAR     69  66  90 S3        30.09S
FLORA*         CLEAR     67  65  94 S3        30.09S
FAIRFIELD*     CLEAR     68  67  96 CALM      30.08S
HARRISBURG*    CLEAR     68  67  98 CALM      30.08F
ROBINSON*      CLEAR     65  64  95 CALM      30.10S
CARMI*         CLEAR     66  66 100 CALM      30.08S FOG
$$

ABBREVIATIONS USED IN REMARKS
   TC - TEMPERATURE IN CELSIUS
  WCI - WIND CHILL INDEX
   HX - HEAT INDEX
  VSB - VISIBILITY
$$



USA.gov is the U.S. government's official web portal to all federal, state and local government web resources and services.